DELTA 1 DEB, 21270

Orbit data source: Space-Track

DELTA 1 DEB, 21270 is space debris in SSO originally from a launch on Thu, 12 Jun 1975 UTC launched from the Air Force Western Test Range (AFWTR). Debris objects in space refer to the collection of defunct objects orbiting the Earth. Examples of debris include non-operational satellites, rocket bodies, and fragments generated from explosions, collisions, or faulty payload assembly.

Loading next visibility...
Identifier
21270, 1975-052F
Orbit
SSO
Country
Flag of USUS
Related business
Manufacturer
Unknown
Mission
Spacecraft
Bus & Motor
Unknown
Mass
Unknown
Launch date (UTC)
1975-06-12 (51 years ago)
Launch vehicle
Unknown
Launch site
Air Force Western Test Range (AFWTR)
Object type
Payload
Rocket body
Debris
Shape & HBR
Unknown shape, 0.2 m
Radar Cross Section
Medium (>0.1 m² and <1 m²)

Expand to show TLE details & history
Last TLE update: 2 days ago

TLE from 2 days ago
0 DELTA 1 DEB
1 21270U 75052F   26171.02859657  .00001030  00000-0  41516-2 0  9993
2 21270  99.4369 203.5485 0440036 208.7100 179.6770 12.61327478609537
Epoch: 2026-06-20T00:41Z
TLE epoch observation values (Epoch: 2026-06-20T00:41:10.743Z)
Latitude
28.03221°
Longitude
-80.0485°
Altitude
1,763.805 km
Speed
6.845 km/s
True Right ascension
13h 13m 58s
True Declination
27° 54' 27"
Sunlit
Object was in daylight at epoch
Visualization orbit readout
Latitude
Unknown
Longitude
Unknown
Altitude
Unknown
Speed
Unknown
Apparent Right ascension
Unknown
Apparent Declination
Unknown
Sunlit
N/A
Visualization observer readout
Local Sidereal Time
14:39:41
Azimuth
Unknown
Elevation
Unknown
Doppler factor
Unknown
Orbital elements
Apogee altitude
1,757.791 km
Perigee altitude
1,071.951 km
Semi-major axis
7,793.008 km
Eccentricity
0.044
Inclination
99.4369°
RAAN
203.5485°
Arg. of periapsis
208.71°
True anomaly
179.70394°
Mean anomaly
179.677°
Eccentric anomaly
179.69061°
Mean motion
3.1549 °/min
Orbital period
114.11 mins
BSTAR
0.0041516
Loading maneuver chart data...
Computing Atmospheric mass density...
Loading historical data...
Loading historical data...
Loading historical data...
Loading historical data...
Loading historical data...
Loading historical data...
Loading historical data...

Documentation

Showing up to 5 results
|